Tracking 20712 objects as of 29-May-2020
HD Live streaming from Space Station
objects crossing your sky now

ARIANE 5 R/B

Track ARIANE 5 R/B now!


NORAD ID: 41795
Int'l Code: 2016-060C
Perigee: 261.2 km
Apogee: 34,202.9 km
Inclination: 5.9 °
Period: 601.5 minutes
Semi major axis: 23603 km
RCS: Unknown
Launch date: October 5, 2016
Source: France (FR)
Launch site: FRENCH GUIANA (FRGUI)

Note: This is a ROCKET BODY
aabbcc
Your satellite tracking list
Your tracking list is empty




NASA's NSSDC Master Catalog

Two Line Element Set (TLE):
1 41795U 16060C   20149.67949433  .00000468  00000-0  18249-3 0  9995
2 41795   5.9280 298.9011 7190096 228.2633  43.5292  2.39414746 31166
Source of the keplerian elements: AFSPC